CAPE
1453 1254 1143 1173 1271 939 1241 1302 1085 951 782 529 513 626 506 472 482 442 427 228 72 94 2 3 3 2 1 1 0 0 0 0 0 0 0 0 0 0 0 0 0 0
1333 1324 1229 1311 1045 1242 1300 1415 1329 977 744 636 480 474 361 295 345 471 292 27 12 228 2 1 0 0 0 0 0 0 0 0 0 0 0 0 0 0 0 0 0 0
1242 1124 1087 1007 959 858 1269 1167 1143 1054 699 492 406 314 231 158 65 137 78 10 37 189 1 3 2 0 1 1 0 0 0 0 0 0 0 0 0 0 0 0 0 0
1314 1259 1169 831 907 895 872 825 743 578 465 468 375 233 259 142 108 124 121 0 27 172 1 2 1 0 0 0 0 0 0 0 0 0 0 0 0 0 0 0 0 0
1423 1136 805 693 802 989 896 598 523 473 490 421 246 163 142 102 72 87 103 0 1 0 1 1 0 1 0 0 0 0 0 0 0 0 0 0 0 0 0 0 0 0
1383 915 677 567 709 732 514 498 497 508 455 414 164 152 127 114 88 96 13 1 1 1 1 0 0 0 0 0 0 0 0 0 0 0 0 0 0 0 0 0 0 0
1466 1136 954 646 723 556 576 459 346 434 468 224 217 144 135 84 52 0 0 0 1 0 0 0 3 0 0 0 0 0 0 0 0 0 0 0 0 0 0 0 0 0
1199 1252 1035 835 772 560 517 459 348 429 399 357 213 148 122 86 0 1 0 0 0 1 2 0 1 0 0 0 0 0 0 0 0 0 0 0 0 0 0 0 0 0
1489 1388 1158 959 625 446 357 464 473 543 433 343 144 128 83 114 121 0 1 2 1 3 1 1 1 0 0 0 0 0 0 0 0 0 0 0 0 0 0 0 0 0
1242 1030 827 667 532 449 409 434 535 537 388 129 196 173 101 3 0 0 0 4 3 2 1 1 0 0 0 0 0 0 0 0 0 0 0 0 0 0 0 0 0 0
982 764 702 606 498 417 335 433 546 469 247 171 223 11 24 2 20 1 1 1 3 1 0 0 0 0 0 0 0 0 0 0 0 0 0 0 0 0 0 0 0 0
883 713 597 493 457 343 131 344 433 282 201 223 127 1 2 27 6 0 0 0 0 0 1 0 0 0 0 0 0 0 0 0 0 0 0 0 0 0 0 0 0 0
848 690 625 550 540 487 377 261 203 212 0 79 81 125 27 5 0 1 2 0 0 0 0 0 0 0 0 0 0 0 0 0 0 0 0 0 0 0 0 0 0 0
662 578 527 550 592 570 366 190 223 230 186 171 148 64 23 20 0 0 1 1 0 0 0 0 0 0 0 0 0 0 0 0 0 0 0 0 0 0 0 0 0 0
402 324 399 593 664 588 410 115 64 180 82 166 156 167 108 1 0 1 1 1 0 1 0 0 0 0 0 0 0 0 0 0 0 0 0 0 0 0 0 0 0 0
250 366 604 838 745 628 420 463 367 264 98 60 82 74 2 0 0 1 2 0 0 0 0 0 0 0 0 0 0 0 0 0 0 0 0 0 0 0 0 0 0 0
529 668 901 836 756 552 477 476 440 314 13 1 28 4 2 0 0 2 1 2 0 0 0 0 0 0 0 0 0 0 0 0 0 0 0 0 0 0 0 0 0 0
840 840 879 802 676 518 460 395 354 84 63 46 39 0 0 4 2 2 0 0 0 0 0 0 0 0 0 0 0 0 0 0 0 0 0 0 0 0 0 0 0 0
948 855 843 570 425 387 390 353 119 171 158 138 72 20 1 3 0 1 1 0 0 0 0 0 0 0 0 0 0 0 0 0 0 0 0 0 0 0 0 0 0 0
846 888 682 437 406 357 274 0 0 189 165 100 26 0 2 2 2 3 0 0 0 0 0 0 0 0 0 0 0 0 0 0 0 0 0 0 0 0 0 0 0 0
742 741 532 422 382 314 244 232 222 188 141 44 0 1 2 3 2 0 0 0 0 0 0 0 0 0 0 0 0 0 0 0 0 0 0 0 0 0 0 0 0 0
763 668 359 357 291 363 280 236 196 187 190 46 1 0 0 2 0 10 8 0 0 0 0 0 0 0 0 0 0 0 0 0 0 0 0 0 0 0 0 0 0 0
736 744 583 437 357 349 332 268 194 162 145 41 2 3 2 0 10 17 11 1 0 0 0 0 0 0 0 0 0 0 0 0 0 0 0 0 0 0 0 0 0 0
676 659 635 510 409 365 290 114 49 22 3 4 3 4 2 12 0 0 0 1 0 0 0 0 0 0 0 0 0 0 2 0 0 0 0 0 0 0 0 0 0 0
623 542 466 379 254 225 168 166 92 4 3 4 5 3 2 0 0 0 0 0 0 0 0 0 0 0 0 0 0 0 0 0 0 0 0 0 0 0 0 0 0 0
542 426 364 225 102 4 6 12 4 1 3 3 3 1 0 0 0 0 0 0 0 0 0 0 0 0 0 0 0 0 0 0 0 0 0 0 0 0 0 0 0 0
Wind_Speed
31 31 34 34 34 34 34 33 32 34 34 33 33 35 35 32 27 27 30 31 nan nan nan nan nan nan nan nan nan nan nan nan nan nan nan nan nan nan nan nan nan nan
31 32 33 35 36 36 37 35 34 34 35 36 35 34 34 32 28 27 30 nan nan 26 nan nan nan nan nan nan nan nan nan nan nan nan nan nan nan nan nan nan nan nan
31 32 34 36 37 39 38 36 35 36 38 37 34 33 32 29 nan 27 nan nan nan 24 nan nan nan nan nan nan nan nan nan nan nan nan nan nan nan nan nan nan nan nan
32 32 33 36 37 37 35 33 35 36 37 34 31 29 28 27 27 29 34 nan nan 24 nan nan nan nan nan nan nan nan nan nan nan nan nan nan nan nan nan nan nan nan
32 32 34 37 36 35 32 30 32 33 32 31 30 27 26 25 nan nan 33 nan nan nan nan nan nan nan nan nan nan nan nan nan nan nan nan nan nan nan nan nan nan nan
31 32 35 36 36 35 30 28 29 29 29 30 28 26 25 23 nan nan nan nan nan nan nan nan nan nan nan nan nan nan nan nan nan nan nan nan nan nan nan nan nan nan
29 31 34 34 33 32 28 25 25 25 25 26 27 27 25 nan nan nan nan nan nan nan nan nan nan nan nan nan nan nan nan nan nan nan nan nan nan nan nan nan nan nan
29 29 30 30 31 29 26 24 24 23 23 24 24 26 23 nan nan nan nan nan nan nan nan nan nan nan nan nan nan nan nan nan nan nan nan nan nan nan nan nan nan nan
28 29 29 30 29 27 27 27 27 27 24 23 23 23 nan 22 25 nan nan nan nan nan nan nan nan nan nan nan nan nan nan nan nan nan nan nan nan nan nan nan nan nan
28 29 31 30 30 29 30 30 28 28 24 23 22 20 19 nan nan nan nan nan nan nan nan nan nan nan nan nan nan nan nan nan nan nan nan nan nan nan nan nan nan nan
31 31 32 34 33 31 31 30 29 28 24 22 20 nan nan nan nan nan nan nan nan nan nan nan nan nan nan nan nan nan nan nan nan nan nan nan nan nan nan nan nan nan
30 30 32 35 33 32 32 30 29 29 27 23 20 nan nan nan nan nan nan nan nan nan nan nan nan nan nan nan nan nan nan nan nan nan nan nan nan nan nan nan nan nan
29 31 32 33 31 31 31 31 31 29 nan nan nan 17 nan nan nan nan nan nan nan nan nan nan nan nan nan nan nan nan nan nan nan nan nan nan nan nan nan nan nan nan
26 28 31 31 31 31 30 29 29 27 22 16 15 nan nan nan nan nan nan nan nan nan nan nan nan nan nan nan nan nan nan nan nan nan nan nan nan nan nan nan nan nan
25 27 26 27 29 30 30 28 nan 23 nan 15 14 11 11 nan nan nan nan nan nan nan nan nan nan nan nan nan nan nan nan nan nan nan nan nan nan nan nan nan nan nan
25 25 25 26 26 27 26 24 21 18 nan nan nan nan nan nan nan nan nan nan nan nan nan nan nan nan nan nan nan nan nan nan nan nan nan nan nan nan nan nan nan nan
24 26 27 27 25 25 23 20 20 18 nan nan nan nan nan nan nan nan nan nan nan nan nan nan nan nan nan nan nan nan nan nan nan nan nan nan nan nan nan nan nan nan
24 26 28 28 27 26 26 25 24 nan nan nan nan nan nan nan nan nan nan nan nan nan nan nan nan nan nan nan nan nan nan nan nan nan nan nan nan nan nan nan nan nan
26 26 27 27 27 26 24 24 25 27 27 24 nan nan nan nan nan nan nan nan nan nan nan nan nan nan nan nan nan nan nan nan nan nan nan nan nan nan nan nan nan nan
26 26 26 26 26 25 26 nan nan 28 28 28 nan nan nan nan nan nan nan nan nan nan nan nan nan nan nan nan nan nan nan nan nan nan nan nan nan nan nan nan nan nan
26 26 28 28 27 27 26 27 27 27 28 nan nan nan nan nan nan nan nan nan nan nan nan nan nan nan nan nan nan nan nan nan nan nan nan nan nan nan nan nan nan nan
25 26 28 29 29 28 28 29 28 27 25 nan nan nan nan nan nan nan nan nan nan nan nan nan nan nan nan nan nan nan nan nan nan nan nan nan nan nan nan nan nan nan
27 27 28 29 29 30 30 29 28 27 25 nan nan nan nan nan nan nan nan nan nan nan nan nan nan nan nan nan nan nan nan nan nan nan nan nan nan nan nan nan nan nan
33 33 33 32 31 31 31 29 nan nan nan nan nan nan nan nan nan nan nan nan nan nan nan nan nan nan nan nan nan nan nan nan nan nan nan nan nan nan nan nan nan nan
37 35 34 32 30 30 29 31 nan nan nan nan nan nan nan nan nan nan nan nan nan nan nan nan nan nan nan nan nan nan nan nan nan nan nan nan nan nan nan nan nan nan
37 36 34 32 31 nan nan nan nan nan nan nan nan nan nan nan nan nan nan nan nan nan nan nan nan nan nan nan nan nan nan nan nan nan nan nan nan nan nan nan nan nan
Wind_Direction
291 293 291 289 286 281 278 278 273 264 258 257 255 252 252 252 255 250 248 250 nan nan nan nan nan nan nan nan nan nan nan nan nan nan nan nan nan nan nan nan nan nan
297 295 289 286 282 278 274 271 268 262 255 249 251 252 251 245 238 247 252 nan nan 247 nan nan nan nan nan nan nan nan nan nan nan nan nan nan nan nan nan nan nan nan
293 293 293 292 285 285 275 268 263 257 250 248 252 256 255 251 nan 245 nan nan nan 253 nan nan nan nan nan nan nan nan nan nan nan nan nan nan nan nan nan nan nan nan
291 290 290 289 287 288 280 266 258 254 252 251 252 252 250 254 254 253 253 nan nan 259 nan nan nan nan nan nan nan nan nan nan nan nan nan nan nan nan nan nan nan nan
294 294 291 291 291 289 282 268 257 255 258 251 251 243 246 251 nan nan 256 nan nan nan nan nan nan nan nan nan nan nan nan nan nan nan nan nan nan nan nan nan nan nan
297 299 295 295 295 295 286 266 256 259 257 252 251 243 248 255 nan nan nan nan nan nan nan nan nan nan nan nan nan nan nan nan nan nan nan nan nan nan nan nan nan nan
301 297 295 295 296 295 287 270 266 260 254 251 249 248 254 nan nan nan nan nan nan nan nan nan nan nan nan nan nan nan nan nan nan nan nan nan nan nan nan nan nan nan
298 291 291 293 293 290 287 278 280 271 258 253 253 254 259 nan nan nan nan nan nan nan nan nan nan nan nan nan nan nan nan nan nan nan nan nan nan nan nan nan nan nan
291 289 285 287 289 289 288 290 284 272 259 257 259 260 nan 267 269 nan nan nan nan nan nan nan nan nan nan nan nan nan nan nan nan nan nan nan nan nan nan nan nan nan
287 285 288 287 290 283 283 287 285 277 264 260 262 267 268 nan nan nan nan nan nan nan nan nan nan nan nan nan nan nan nan nan nan nan nan nan nan nan nan nan nan nan
284 287 287 286 289 287 285 284 282 275 269 269 269 nan nan nan nan nan nan nan nan nan nan nan nan nan nan nan nan nan nan nan nan nan nan nan nan nan nan nan nan nan
290 288 288 290 291 285 283 284 282 278 276 272 270 nan nan nan nan nan nan nan nan nan nan nan nan nan nan nan nan nan nan nan nan nan nan nan nan nan nan nan nan nan
299 301 299 296 294 288 282 282 284 279 nan nan nan 282 nan nan nan nan nan nan nan nan nan nan nan nan nan nan nan nan nan nan nan nan nan nan nan nan nan nan nan nan
302 303 301 297 291 289 286 277 276 276 277 274 281 nan nan nan nan nan nan nan nan nan nan nan nan nan nan nan nan nan nan nan nan nan nan nan nan nan nan nan nan nan
297 300 300 300 300 296 290 277 nan 279 nan 288 287 279 278 nan nan nan nan nan nan nan nan nan nan nan nan nan nan nan nan nan nan nan nan nan nan nan nan nan nan nan
299 302 303 304 308 304 296 287 283 285 nan nan nan nan nan nan nan nan nan nan nan nan nan nan nan nan nan nan nan nan nan nan nan nan nan nan nan nan nan nan nan nan
297 300 303 303 306 310 307 298 293 289 nan nan nan nan nan nan nan nan nan nan nan nan nan nan nan nan nan nan nan nan nan nan nan nan nan nan nan nan nan nan nan nan
296 301 305 306 307 309 312 308 297 nan nan nan nan nan nan nan nan nan nan nan nan nan nan nan nan nan nan nan nan nan nan nan nan nan nan nan nan nan nan nan nan nan
297 299 301 304 306 304 303 301 296 292 291 286 nan nan nan nan nan nan nan nan nan nan nan nan nan nan nan nan nan nan nan nan nan nan nan nan nan nan nan nan nan nan
295 297 294 292 292 291 295 nan nan 296 285 278 nan nan nan nan nan nan nan nan nan nan nan nan nan nan nan nan nan nan nan nan nan nan nan nan nan nan nan nan nan nan
292 285 283 286 290 292 292 294 295 292 287 nan nan nan nan nan nan nan nan nan nan nan nan nan nan nan nan nan nan nan nan nan nan nan nan nan nan nan nan nan nan nan
282 278 283 287 291 293 295 294 295 297 296 nan nan nan nan nan nan nan nan nan nan nan nan nan nan nan nan nan nan nan nan nan nan nan nan nan nan nan nan nan nan nan
279 280 285 289 291 292 292 293 296 299 299 nan nan nan nan nan nan nan nan nan nan nan nan nan nan nan nan nan nan nan nan nan nan nan nan nan nan nan nan nan nan nan
282 282 285 286 287 289 291 293 nan nan nan nan nan nan nan nan nan nan nan nan nan nan nan nan nan nan nan nan nan nan nan nan nan nan nan nan nan nan nan nan nan nan
284 284 285 286 287 288 289 293 nan nan nan nan nan nan nan nan nan nan nan nan nan nan nan nan nan nan nan nan nan nan nan nan nan nan nan nan nan nan nan nan nan nan
284 285 285 287 289 nan nan nan nan nan nan nan nan nan nan nan nan nan nan nan nan nan nan nan nan nan nan nan nan nan nan nan nan nan nan nan nan nan nan nan nan nan